Regional Weather Roundup
Issued by NWS Sterling, VA

Home | Current Version | Previous Version | Text Only | Print | Product List | Glossary On
Versions: 1 2 3 4 5 6 7 8 9 10 11 12 13 14 15 16 17 18 19 20 21 22 23 24 25 26 27 28 29 30 31 32 33 34 35 36 37 38 39 40 41 42 43 44 45 46 47 48 49 50
000
ASUS41 KLWX 100410
RWRLWX

REGIONAL WEATHER ROUNDUP
NATIONAL WEATHER SERVICE BALTIMORE MD/WASHINGTON DC
1200 AM EDT THU JUL 10 2014

Note: "FAIR" indicates few or no clouds below 12,000 feet
with no significant weather and/or obstructions to visibility.
 TC=TEMPERATURE CELSIUS

 * =Non NWS site. Station does not report precipitation (e.g. rain,
    snow, etc.), thunder, or fog.

DCZ001-MDZ009-015-VAZ040>042-051-053>054-100500-
WASHINGTON METRO
  /KDAA//-FT BELVOIR

CITY           SKY/WX    TMP DP  RH WIND       PRES   REMARKS
WASHINGTON NAT CLOUDY    73  66  78 SW6       29.98F
DULLES         CLOUDY    70  68  93 S3        29.97F
ANDREWS AFB    CLOUDY    70  68  92 S5        29.99R
QUANTICO       MOCLDY    72  69  90 CALM      29.99S
COLLEGE PARK*  CLOUDY    72  70  94 CALM      29.97F
LEESBURG*      CLOUDY    72  72 100 CALM      29.99S
MANASSAS*      MOCLDY    70  70 100 S3        29.98F
GAITHERSBURG*  CLOUDY    72  66  83 SW3       30.02S

$$

MDZ006>007-011-014-100500-
BALTIMORE METRO

CITY           SKY/WX    TMP DP  RH WIND       PRES   REMARKS
BWI AIRPORT    MOCLDY    72  66  81 SW6       29.97S
MD SCIENCE CTR   N/A     74  66  76 MISG      29.97S
MARTIN STATE   CLOUDY    73  70  88 S3        29.98R
ANNAPOLIS      CLOUDY    73  68  84 CALM      29.97S
FORT MEADE*    MOCLDY    66  64  94 CALM      30.00S

$$

MDZ012-015-019>023-100500-
MARYLAND EASTERN SHORE

CITY           SKY/WX    TMP DP  RH WIND       PRES   REMARKS
OCEAN CITY     CLOUDY    71  69  93 S7        30.00F FOG
SALISBURY      CLOUDY    75  71  87 S7        29.99F
BAY BRIDGE AP*   N/A     73  70  88 S5        29.97S
CAMBRIDGE*     MOCLDY    73  70  88 S5        29.98R
EASTON*        MOCLDY    74  74 100 S6        30.01S

$$

MDZ017>025-100500-
SOUTHERN MARYLAND

CITY           SKY/WX    TMP DP  RH WIND       PRES   REMARKS
PATUXENT RIVER CLOUDY    74  70  87 S7        29.98S
ST INIGOES     CLOUDY    76  69  79 S12       29.98S
LEONARDTOWN*   CLOUDY    72  68  88 S6        30.01R

$$

MDZ003>005-100500-
NORTH CENTRAL MARYLAND

CITY           SKY/WX    TMP DP  RH WIND       PRES   REMARKS
FREDERICK*     MOCLDY    70  70 100 CALM      30.00S
HAGERSTOWN APT PTCLDY    74  66  76 CALM      29.98S
WESTMINSTER*   MOCLDY    72  66  83 SW5       29.99S

$$

MDZ501>502-100500-
WESTERN MARYLAND

CITY           SKY/WX    TMP DP  RH WIND       PRES   REMARKS
OAKLAND*       CLEAR     63  57  82 W3        30.11S
CUMBERLAND*    PTCLDY    70  61  73 N5        30.04S

$$

VAZ025>031-100500-
SHENANDOAH VALLEY

CITY           SKY/WX    TMP DP  RH WIND       PRES   REMARKS
WINCHESTER*    MOCLDY    73  64  73 CALM      29.99S
STAUNTON*      CLOUDY    68  64  87 E3        30.04S

$$

WVZ021-048>050-054>055-100500-
EASTERN WEST VIRGINIA PANHANDLE

CITY           SKY/WX    TMP DP  RH WIND       PRES   REMARKS
MARTINSBURG    MOCLDY    72  67  84 W3        29.98S
PETERSBURG*    PTCLDY    65  59  82 CALM      30.04R

$$

VAZ036>039-050-100500-
CENTRAL FOOTHILLS

CITY           SKY/WX    TMP DP  RH WIND       PRES   REMARKS
CHARLOTTESVILL MOCLDY    72  69  90 S3        29.99S
ORANGE*        MOCLDY    72  70  94 S5        30.00F

$$

VAZ055>057-100500-
NORTH AND CENTRAL PIEDMONT

CITY           SKY/WX    TMP DP  RH WIND       PRES   REMARKS
FREDERICKSBRG* MOCLDY    76  70  80 CALM      29.98R
STAFFORD*      MOCLDY    69  69 100 CALM      30.02S FOG

$$

NCZ024-NYZ072-PAZ021-071-VAZ022-071-100500-
OTHER REGIONAL OBSERVATIONS

CITY           SKY/WX    TMP DP  RH WIND       PRES   REMARKS
NEW YORK CITY  CLOUDY    76  63  64 CALM      29.99R
PHILADELPHIA   CLOUDY    79  69  71 SW10      29.96S
PITTSBURGH     MOCLDY    71  58  63 CALM      30.03R
ROANOKE        PTCLDY    69  66  90 CALM      30.06S
RICHMOND       CLOUDY    75  71  87 S6        30.01R
RALEIGH        CLOUDY    75  69  81 S3        30.04R

$$

ANZ530>537-100500-
MARINE OBSERVATIONS

STATION/POSITION TIME  TEMP    WIND        PRES
                       AIR SEA DIR/SP/G
                 (UTC) (F)     (DEG/KT/KT) (MB)
THOMAS PT LIGHT  0400   76 79  190/ 13/ 14 1015.5R
BALT KEY BRIDGE  0400   74     220/  4/  5 1014.6S
COVE POINT       0400   76     190/ 11/ 12 1015.1R
LEWISETTA        0400   76 81  210/ 12/ 14 1015.6R
SOLOMONS ISLAND  0400      80                N/A
PINEY POINT      0400          200/ 13/ 14   N/A

$$



USA.gov is the U.S. government's official web portal to all federal, state and local government web resources and services.